SDM6325 ULLI-UMKK

Flight info

Callsign SDM6325
Flight time N/A
Altitude 38000
Route UTETA DCT PISIS DCT ARANS/N0460F380 DCT PIDIN DCT PISIM DCT PIRUX DCT PIVAX/N0453F370 DCT GARSO DCT AGONA DCT TURIP
Aircraft A319/M-SDE3FGHIRWY/LB1

Departure

Time N/A
Airport Pulkovo Airport (ULLI)

Arrival

Time 2026-05-05 14:55
Airport Khrabrovo Airport (UMKK)
Time Latitude Longitude Altitude Speed Heading
2026-05-05 13:49 59.86534 25.37100 37781 ft 396 kts 256°
2026-05-05 13:49 59.85895 25.31843 37771 ft 395 kts 255°
2026-05-05 13:49 59.84591 25.21173 37792 ft 396 kts 255°
2026-05-05 13:50 59.83289 25.10605 37786 ft 396 kts 255°
2026-05-05 13:50 59.81971 24.99980 37785 ft 397 kts 255°
2026-05-05 13:51 59.80635 24.89282 37792 ft 397 kts 255°
2026-05-05 13:51 59.79302 24.78690 37776 ft 397 kts 255°
2026-05-05 13:52 59.77957 24.68091 37778 ft 396 kts 255°
2026-05-05 13:52 59.76614 24.57588 37785 ft 396 kts 255°
2026-05-05 13:53 59.75251 24.46999 37773 ft 397 kts 255°
2026-05-05 13:53 59.73720 24.36564 37794 ft 397 kts 253°
2026-05-05 13:54 59.72147 24.26149 37789 ft 397 kts 252°
2026-05-05 13:54 59.70557 24.15687 37797 ft 398 kts 252°
2026-05-05 13:55 59.68951 24.05180 37807 ft 398 kts 252°
2026-05-05 13:55 59.67245 23.94104 37811 ft 398 kts 252°
2026-05-05 13:56 59.65626 23.83676 37818 ft 398 kts 252°
2026-05-05 13:56 59.64010 23.73320 37814 ft 398 kts 252°
2026-05-05 13:57 59.62371 23.62874 37820 ft 397 kts 252°
2026-05-05 13:57 59.60740 23.52555 37829 ft 398 kts 252°
2026-05-05 13:58 59.59087 23.42155 37832 ft 397 kts 252°
2026-05-05 13:58 59.57432 23.31821 37827 ft 397 kts 251°
2026-05-05 13:59 59.54799 23.16410 37840 ft 397 kts 248°
2026-05-05 14:00 59.51759 23.03262 37838 ft 398 kts 245°
2026-05-05 14:00 59.49021 22.91848 37845 ft 398 kts 245°
2026-05-05 14:01 59.46658 22.82071 37852 ft 398 kts 245°
2026-05-05 14:01 59.44286 22.72307 37840 ft 398 kts 245°
2026-05-05 14:02 59.41892 22.62500 37828 ft 399 kts 245°
2026-05-05 14:02 59.39503 22.52758 37850 ft 399 kts 245°
2026-05-05 14:03 59.37106 22.43026 37851 ft 398 kts 245°
2026-05-05 14:03 59.34701 22.33312 37849 ft 398 kts 244°
2026-05-05 14:04 59.32294 22.23626 37846 ft 399 kts 244°
2026-05-05 14:04 59.29870 22.13917 37863 ft 399 kts 244°
2026-05-05 14:05 59.27431 22.04197 37850 ft 398 kts 244°
2026-05-05 14:05 59.25001 21.94553 37854 ft 399 kts 245°
2026-05-05 14:06 59.22546 21.84843 37882 ft 399 kts 245°
2026-05-05 14:06 59.20107 21.75247 37866 ft 398 kts 245°
2026-05-05 14:07 59.17645 21.65594 37850 ft 398 kts 244°
2026-05-05 14:07 59.15184 21.56000 37852 ft 398 kts 244°
2026-05-05 14:08 59.12715 21.46413 37861 ft 397 kts 244°
2026-05-05 14:08 59.10247 21.36874 37883 ft 397 kts 244°
2026-05-05 14:09 59.07470 21.27609 37896 ft 399 kts 235°
2026-05-05 14:09 59.03695 21.19727 37887 ft 403 kts 223°
2026-05-05 14:10 58.99052 21.13632 37898 ft 410 kts 212°
2026-05-05 14:10 58.93724 21.09524 37890 ft 416 kts 204°
2026-05-05 14:11 58.88177 21.05931 37889 ft 416 kts 204°
2026-05-05 14:11 58.82382 21.02213 37882 ft 416 kts 204°
2026-05-05 14:12 58.76920 20.98726 37883 ft 416 kts 204°
2026-05-05 14:12 58.71452 20.95246 37884 ft 416 kts 204°
2026-05-05 14:13 58.65974 20.91771 37882 ft 416 kts 204°
2026-05-05 14:13 58.60512 20.88321 37886 ft 416 kts 204°
2026-05-05 14:14 58.55042 20.84876 37877 ft 416 kts 204°
2026-05-05 14:14 58.49594 20.81455 37882 ft 415 kts 204°
2026-05-05 14:15 58.44127 20.78032 37875 ft 416 kts 204°
2026-05-05 14:15 58.38637 20.74605 37875 ft 416 kts 203°
2026-05-05 14:16 58.33179 20.71213 37871 ft 416 kts 203°
2026-05-05 14:16 58.27691 20.67812 37841 ft 417 kts 203°
2026-05-05 14:17 58.22058 20.64332 37873 ft 417 kts 203°
2026-05-05 14:17 58.16573 20.60955 37874 ft 417 kts 203°
2026-05-05 14:18 58.11066 20.57577 37871 ft 417 kts 203°
2026-05-05 14:18 58.05580 20.54219 37869 ft 418 kts 203°
2026-05-05 14:19 58.00057 20.50853 37881 ft 418 kts 203°
2026-05-05 14:19 57.94510 20.47482 37871 ft 418 kts 203°
2026-05-05 14:20 57.88809 20.44029 37871 ft 418 kts 203°
2026-05-05 14:20 57.83262 20.40680 37870 ft 417 kts 203°
2026-05-05 14:21 57.77571 20.37255 37870 ft 417 kts 203°
2026-05-05 14:21 57.71993 20.33911 37879 ft 417 kts 202°
2026-05-05 14:22 57.66457 20.30602 37882 ft 418 kts 202°
2026-05-05 14:22 57.60969 20.27330 37890 ft 419 kts 202°
2026-05-05 14:23 57.55429 20.24040 37891 ft 419 kts 202°
2026-05-05 14:23 57.49884 20.20755 37887 ft 419 kts 202°
2026-05-05 14:24 57.44363 20.17498 37895 ft 419 kts 202°
2026-05-05 14:24 57.38863 20.14262 37891 ft 418 kts 202°
2026-05-05 14:25 57.33324 20.11014 37891 ft 418 kts 202°
2026-05-05 14:25 57.27796 20.07782 37885 ft 418 kts 202°
2026-05-05 14:26 57.22275 20.04563 37885 ft 419 kts 202°
2026-05-05 14:26 57.16744 20.01352 37882 ft 419 kts 202°
2026-05-05 14:27 57.11205 19.98147 37886 ft 420 kts 202°
2026-05-05 14:27 57.05585 19.95213 37882 ft 423 kts 197°
2026-05-05 14:28 56.99771 19.93508 37880 ft 428 kts 191°
2026-05-05 14:28 56.93843 19.93159 37884 ft 433 kts 184°
2026-05-05 14:29 56.87814 19.94108 37891 ft 435 kts 179°
2026-05-05 14:29 56.82831 19.95089 37888 ft 435 kts 180°
2026-05-05 14:30 56.78846 19.95868 37696 ft 435 kts 180°
2026-05-05 14:30 56.75822 19.96460 37378 ft 432 kts 180°
2026-05-05 14:30 56.72876 19.97038 37052 ft 428 kts 180°
2026-05-05 14:30 56.69939 19.97613 36724 ft 424 kts 180°
2026-05-05 14:31 56.67025 19.98181 36409 ft 421 kts 180°
2026-05-05 14:31 56.64159 19.98737 36150 ft 419 kts 180°
2026-05-05 14:31 56.61257 19.99299 35922 ft 419 kts 180°
2026-05-05 14:31 56.58375 19.99857 35695 ft 417 kts 180°
2026-05-05 14:32 56.55523 20.00407 35469 ft 417 kts 180°
2026-05-05 14:32 56.52642 20.00962 35235 ft 416 kts 180°
2026-05-05 14:32 56.49773 20.01517 34943 ft 415 kts 180°
2026-05-05 14:32 56.46922 20.02067 34543 ft 414 kts 180°
2026-05-05 14:33 56.44058 20.02618 34106 ft 414 kts 181°
2026-05-05 14:33 56.41238 20.03158 33675 ft 414 kts 181°
2026-05-05 14:33 56.38359 20.03713 33243 ft 414 kts 181°
2026-05-05 14:33 56.35515 20.04256 32784 ft 415 kts 181°
2026-05-05 14:34 56.32661 20.04801 32241 ft 415 kts 181°
2026-05-05 14:34 56.29796 20.05349 31695 ft 415 kts 181°
2026-05-05 14:34 56.26947 20.05893 31152 ft 415 kts 181°
2026-05-05 14:34 56.24076 20.06438 30597 ft 415 kts 181°
2026-05-05 14:35 56.21223 20.06979 30025 ft 417 kts 181°
2026-05-05 14:35 56.18356 20.07642 29455 ft 421 kts 178°
2026-05-05 14:35 56.15450 20.08597 28876 ft 425 kts 175°
2026-05-05 14:35 56.12602 20.09824 28255 ft 430 kts 172°
2026-05-05 14:36 56.09708 20.11378 27543 ft 435 kts 169°
2026-05-05 14:36 56.06850 20.13194 26775 ft 439 kts 167°
2026-05-05 14:36 56.04000 20.15027 25991 ft 441 kts 167°
2026-05-05 14:36 56.01144 20.16855 25216 ft 439 kts 167°
2026-05-05 14:37 55.98293 20.18678 24455 ft 436 kts 167°
2026-05-05 14:37 55.95464 20.20483 23685 ft 433 kts 167°
2026-05-05 14:37 55.92666 20.22265 22925 ft 430 kts 166°
2026-05-05 14:37 55.89856 20.24053 22161 ft 428 kts 166°
2026-05-05 14:38 55.87059 20.25830 21401 ft 426 kts 166°
2026-05-05 14:38 55.84280 20.27588 20641 ft 425 kts 166°
2026-05-05 14:38 55.81532 20.29327 19889 ft 423 kts 166°
2026-05-05 14:38 55.78786 20.31063 19140 ft 422 kts 165°
2026-05-05 14:39 55.76035 20.32799 18369 ft 421 kts 165°
2026-05-05 14:39 55.73312 20.34515 17618 ft 420 kts 165°
2026-05-05 14:39 55.70521 20.36272 16847 ft 420 kts 165°
2026-05-05 14:39 55.67818 20.37972 16092 ft 419 kts 165°
2026-05-05 14:40 55.65077 20.39693 15328 ft 418 kts 165°
2026-05-05 14:40 55.62360 20.41398 14558 ft 417 kts 164°
2026-05-05 14:40 55.59616 20.43116 13780 ft 416 kts 164°
2026-05-05 14:40 55.56909 20.44813 13011 ft 415 kts 164°
2026-05-05 14:41 55.54211 20.46501 12240 ft 412 kts 164°
2026-05-05 14:41 55.51550 20.48166 11574 ft 401 kts 164°
2026-05-05 14:41 55.48994 20.49763 10903 ft 386 kts 164°
2026-05-05 14:41 55.46534 20.51300 10544 ft 363 kts 165°
2026-05-05 14:42 55.44234 20.52736 10338 ft 340 kts 165°
2026-05-05 14:42 55.42072 20.53981 10128 ft 318 kts 169°
2026-05-05 14:42 55.39978 20.54863 9936 ft 304 kts 174°
2026-05-05 14:42 55.37933 20.55420 9889 ft 286 kts 178°
2026-05-05 14:43 55.35978 20.55685 9881 ft 280 kts 182°
2026-05-05 14:43 55.34050 20.55871 9882 ft 283 kts 177°
2026-05-05 14:43 55.32141 20.56792 9877 ft 284 kts 161°
2026-05-05 14:43 55.30475 20.58535 9816 ft 279 kts 146°
2026-05-05 14:44 55.29128 20.60939 9672 ft 277 kts 131°
2026-05-05 14:44 55.28030 20.63647 9544 ft 270 kts 128°
2026-05-05 14:44 55.26945 20.66465 9458 ft 282 kts 129°
2026-05-05 14:44 55.25811 20.69385 9361 ft 300 kts 129°
2026-05-05 14:45 55.24629 20.72402 9186 ft 302 kts 129°
2026-05-05 14:45 55.23438 20.75425 8994 ft 302 kts 129°
2026-05-05 14:45 55.22245 20.78434 8727 ft 301 kts 129°
2026-05-05 14:45 55.21055 20.81422 8416 ft 299 kts 129°
2026-05-05 14:46 55.19857 20.84421 8099 ft 297 kts 129°
2026-05-05 14:46 55.18700 20.87319 7999 ft 285 kts 129°
2026-05-05 14:46 55.17589 20.90101 7928 ft 273 kts 129°
2026-05-05 14:46 55.16594 20.92847 7851 ft 264 kts 122°
2026-05-05 14:47 55.15821 20.95796 7573 ft 265 kts 116°
2026-05-05 14:47 55.15149 20.98797 7266 ft 264 kts 114°
2026-05-05 14:47 55.14501 21.01761 7047 ft 258 kts 114°
2026-05-05 14:47 55.13876 21.04616 7028 ft 247 kts 115°
2026-05-05 14:48 55.13084 21.07236 6922 ft 240 kts 140°
2026-05-05 14:48 55.11697 21.08572 6698 ft 227 kts 179°
2026-05-05 14:48 55.10242 21.08050 6384 ft 213 kts 218°
2026-05-05 14:48 55.09210 21.06265 6068 ft 212 kts 230°
2026-05-05 14:49 55.08174 21.04364 5678 ft 217 kts 226°
2026-05-05 14:49 55.07071 21.02591 5281 ft 222 kts 223°
2026-05-05 14:49 55.05882 21.00856 4886 ft 226 kts 221°
2026-05-05 14:49 55.04636 20.99146 4474 ft 231 kts 219°
2026-05-05 14:50 55.03338 20.97425 4054 ft 235 kts 219°
2026-05-05 14:50 55.02023 20.95717 3637 ft 240 kts 218°
2026-05-05 14:50 55.00672 20.93980 3228 ft 243 kts 218°
2026-05-05 14:50 54.99303 20.92229 2817 ft 247 kts 218°
2026-05-05 14:51 54.97922 20.90467 2415 ft 250 kts 218°
2026-05-05 14:51 54.96537 20.88613 2019 ft 250 kts 226°
2026-05-05 14:51 54.95631 20.86210 1934 ft 230 kts 249°
2026-05-05 14:51 54.95079 20.83720 1942 ft 213 kts 253°
2026-05-05 14:52 54.94615 20.81384 1943 ft 197 kts 253°
2026-05-05 14:52 54.94168 20.79235 2037 ft 182 kts 251°
2026-05-05 14:52 54.93703 20.77309 1923 ft 165 kts 249°
2026-05-05 14:52 54.93246 20.75557 1736 ft 153 kts 248°
2026-05-05 14:53 54.92820 20.73943 1521 ft 144 kts 249°
2026-05-05 14:53 54.92406 20.72362 1327 ft 144 kts 249°
2026-05-05 14:53 54.91993 20.70773 1136 ft 143 kts 249°
2026-05-05 14:53 54.91587 20.69213 946 ft 142 kts 249°
2026-05-05 14:54 54.91186 20.67665 751 ft 141 kts 249°
2026-05-05 14:54 54.90784 20.66108 548 ft 141 kts 247°
2026-05-05 14:54 54.90370 20.64572 358 ft 140 kts 249°
2026-05-05 14:54 54.89976 20.63022 184 ft 140 kts 249°
2026-05-05 14:55 54.89585 20.61495 55 ft 137 kts 249°
2026-05-05 14:55 54.89240 20.60149 50 ft 98 kts 247°
2026-05-05 14:55 54.89031 20.59353 49 ft 48 kts 246°
2026-05-05 14:55 54.88943 20.59012 49 ft 24 kts 246°
2026-05-05 14:56 54.88881 20.58777 50 ft 17 kts 246°
2026-05-05 14:56 54.88850 20.58656 50 ft 7 kts 244°
2026-05-05 14:56 54.88800 20.58626 49 ft 9 kts 160°
2026-05-05 14:56 54.88738 20.58676 50 ft 10 kts 156°
2026-05-05 14:57 54.88673 20.58726 49 ft 9 kts 156°
2026-05-05 14:57 54.88612 20.58775 50 ft 9 kts 156°
2026-05-05 14:57 54.88566 20.58812 49 ft 5 kts 155°
2026-05-05 14:57 54.88530 20.58823 49 ft 5 kts 204°
2026-05-05 14:58 54.88508 20.58754 49 ft 7 kts 247°
2026-05-05 14:58 54.88486 20.58670 50 ft 7 kts 246°
2026-05-05 14:58 54.88465 20.58617 50 ft 5 kts 205°
2026-05-05 14:58 54.88432 20.58627 50 ft 4 kts 157°
2026-05-05 14:59 54.88409 20.58645 49 ft 2 kts 156°
2026-05-05 14:59 54.88401 20.58651 49 ft 0 kts 156°